AFL1419 USSS-UUEE

Flight info

Callsign AFL1419
Flight time 2h 11m
Altitude 38000
Route LUNAG6K LUNAG M864 AGNOK T796 ORTIM L158 DIMGI DIMGI3F
Aircraft A310/H-SDFGHIM1RTUWXY/LB1

Departure

Time 2026-05-06 10:52
Airport Koltsovo Airport (USSS)

Arrival

Time 2026-05-06 13:04
Airport Sheremetyevo International Airport (UUEE)
Time Latitude Longitude Altitude Speed Heading
2026-05-06 10:14 56.74933 60.80134 783 ft 0 kts 360°
2026-05-06 10:39 56.74921 60.80134 801 ft 2 kts 359°
2026-05-06 10:40 56.74905 60.80135 773 ft 2 kts 359°
2026-05-06 10:40 56.74888 60.80135 777 ft 2 kts 359°
2026-05-06 10:40 56.74872 60.80133 777 ft 2 kts 29°
2026-05-06 10:40 56.74860 60.80112 777 ft 2 kts 63°
2026-05-06 10:41 56.74855 60.80084 777 ft 2 kts 80°
2026-05-06 10:41 56.74853 60.80070 777 ft 0 kts 86°
2026-05-06 10:45 56.74853 60.80071 777 ft 0 kts 87°
2026-05-06 10:45 56.74853 60.80082 777 ft 1 kts 89°
2026-05-06 10:45 56.74854 60.80115 777 ft 4 kts 89°
2026-05-06 10:45 56.74854 60.80193 777 ft 9 kts 90°
2026-05-06 10:46 56.74854 60.80339 777 ft 13 kts 90°
2026-05-06 10:46 56.74854 60.80494 777 ft 12 kts 89°
2026-05-06 10:46 56.74853 60.80640 777 ft 12 kts 91°
2026-05-06 10:46 56.74853 60.80790 777 ft 12 kts 89°
2026-05-06 10:47 56.74855 60.80949 777 ft 13 kts 89°
2026-05-06 10:47 56.74861 60.81056 777 ft 12 kts 81°
2026-05-06 10:47 56.74863 60.81248 777 ft 12 kts 91°
2026-05-06 10:47 56.74863 60.81401 777 ft 12 kts 90°
2026-05-06 10:48 56.74863 60.81511 777 ft 13 kts 90°
2026-05-06 10:48 56.74862 60.81678 777 ft 14 kts 90°
2026-05-06 10:48 56.74861 60.81855 777 ft 14 kts 90°
2026-05-06 10:48 56.74833 60.81954 777 ft 8 kts 121°
2026-05-06 10:49 56.74808 60.82042 777 ft 8 kts 117°
2026-05-06 10:49 56.74779 60.82139 777 ft 9 kts 120°
2026-05-06 10:49 56.74746 60.82197 777 ft 3 kts 160°
2026-05-06 10:49 56.74721 60.82201 778 ft 5 kts 179°
2026-05-06 10:50 56.74657 60.82200 778 ft 13 kts 181°
2026-05-06 10:50 56.74541 60.82200 777 ft 19 kts 180°
2026-05-06 10:50 56.74409 60.82193 777 ft 19 kts 185°
2026-05-06 10:50 56.74281 60.82175 777 ft 18 kts 183°
2026-05-06 10:51 56.74164 60.82160 777 ft 16 kts 184°
2026-05-06 10:51 56.74075 60.82139 777 ft 7 kts 211°
2026-05-06 10:51 56.74066 60.82103 777 ft 3 kts 261°
2026-05-06 10:51 56.74072 60.81913 777 ft 38 kts 272°
2026-05-06 10:52 56.74110 60.80997 777 ft 104 kts 275°
2026-05-06 10:52 56.74173 60.79357 825 ft 152 kts 272°
2026-05-06 10:52 56.74249 60.77309 1325 ft 164 kts 271°
2026-05-06 10:52 56.74306 60.75253 2112 ft 165 kts 272°
2026-05-06 10:53 56.74368 60.73035 2653 ft 184 kts 272°
2026-05-06 10:53 56.74433 60.70654 3351 ft 194 kts 272°
2026-05-06 10:53 56.74474 60.68114 4180 ft 205 kts 268°
2026-05-06 10:53 56.74485 60.65538 5006 ft 215 kts 269°
2026-05-06 10:54 56.74506 60.62747 5852 ft 224 kts 269°
2026-05-06 10:54 56.74532 60.59833 6655 ft 237 kts 269°
2026-05-06 10:54 56.74556 60.56740 7403 ft 251 kts 269°
2026-05-06 10:54 56.74654 60.53503 8298 ft 260 kts 277°
2026-05-06 10:55 56.74988 60.50214 9286 ft 267 kts 279°
2026-05-06 10:55 56.75349 60.46868 10240 ft 272 kts 279°
2026-05-06 10:55 56.75747 60.43355 10799 ft 293 kts 280°
2026-05-06 10:55 56.76171 60.39596 11363 ft 311 kts 280°
2026-05-06 10:56 56.76613 60.35623 11991 ft 326 kts 280°
2026-05-06 10:56 56.77060 60.31567 12727 ft 336 kts 280°
2026-05-06 10:56 56.77522 60.27315 13445 ft 347 kts 280°
2026-05-06 10:56 56.77990 60.22906 13963 ft 362 kts 280°
2026-05-06 10:57 56.78445 60.18299 14459 ft 375 kts 279°
2026-05-06 10:57 56.78885 60.13561 15097 ft 382 kts 277°
2026-05-06 10:57 56.79221 60.08727 15848 ft 386 kts 276°
2026-05-06 10:57 56.79511 60.03825 16595 ft 391 kts 275°
2026-05-06 10:58 56.79794 59.98857 17340 ft 395 kts 275°
2026-05-06 10:58 56.80105 59.93848 18085 ft 399 kts 276°
2026-05-06 10:58 56.80406 59.88794 18715 ft 403 kts 276°
2026-05-06 10:58 56.80721 59.83680 19355 ft 407 kts 276°
2026-05-06 10:59 56.81022 59.78529 19975 ft 411 kts 276°
2026-05-06 10:59 56.81341 59.73319 20597 ft 414 kts 276°
2026-05-06 10:59 56.81641 59.68145 21239 ft 418 kts 276°
2026-05-06 10:59 56.81958 59.62836 21859 ft 422 kts 276°
2026-05-06 11:00 56.82272 59.57482 22495 ft 426 kts 276°
2026-05-06 11:00 56.82584 59.52088 23130 ft 429 kts 276°
2026-05-06 11:00 56.82888 59.46643 23685 ft 434 kts 276°
2026-05-06 11:00 56.83174 59.41141 24203 ft 437 kts 275°
2026-05-06 11:01 56.83461 59.35582 24746 ft 440 kts 275°
2026-05-06 11:01 56.83770 59.29994 25267 ft 443 kts 276°
2026-05-06 11:01 56.84081 59.24368 25805 ft 446 kts 275°
2026-05-06 11:01 56.84385 59.18718 26339 ft 449 kts 275°
2026-05-06 11:02 56.84692 59.13038 26937 ft 450 kts 275°
2026-05-06 11:02 56.85006 59.07321 27487 ft 453 kts 275°
2026-05-06 11:02 56.85211 59.01674 28255 ft 449 kts 272°
2026-05-06 11:02 56.85302 58.95992 29005 ft 447 kts 271°
2026-05-06 11:03 56.85383 58.90323 29786 ft 444 kts 271°
2026-05-06 11:03 56.85479 58.84690 30447 ft 442 kts 271°
2026-05-06 11:03 56.85584 58.79079 31061 ft 440 kts 271°
2026-05-06 11:03 56.85690 58.73494 31681 ft 438 kts 271°
2026-05-06 11:04 56.85771 58.67929 32303 ft 436 kts 271°
2026-05-06 11:04 56.85861 58.62400 32919 ft 435 kts 270°
2026-05-06 11:04 56.85938 58.56896 33534 ft 433 kts 270°
2026-05-06 11:04 56.86027 58.51401 34099 ft 431 kts 270°
2026-05-06 11:05 56.86109 58.45936 34547 ft 431 kts 270°
2026-05-06 11:05 56.86187 58.40459 34976 ft 431 kts 270°
2026-05-06 11:05 56.86264 58.35053 35389 ft 431 kts 270°
2026-05-06 11:05 56.86344 58.29572 35779 ft 431 kts 270°
2026-05-06 11:06 56.86424 58.24099 36179 ft 431 kts 270°
2026-05-06 11:06 56.86506 58.18595 36566 ft 431 kts 270°
2026-05-06 11:06 56.86587 58.13110 36946 ft 432 kts 270°
2026-05-06 11:06 56.86665 58.07619 37331 ft 431 kts 270°
2026-05-06 11:07 56.86715 58.02135 37656 ft 433 kts 270°
2026-05-06 11:07 56.86783 57.96603 37775 ft 437 kts 270°
2026-05-06 11:07 56.86836 57.91065 37817 ft 435 kts 270°
2026-05-06 11:08 56.86942 57.80158 37844 ft 429 kts 270°
2026-05-06 11:08 56.87043 57.69256 37838 ft 427 kts 270°
2026-05-06 11:09 56.87134 57.58400 37839 ft 427 kts 269°
2026-05-06 11:09 56.87204 57.47556 37853 ft 426 kts 269°
2026-05-06 11:10 56.87278 57.36772 37838 ft 427 kts 269°
2026-05-06 11:10 56.87343 57.25914 37841 ft 427 kts 269°
2026-05-06 11:11 56.87407 57.15052 37845 ft 427 kts 269°
2026-05-06 11:11 56.87470 57.04209 37839 ft 427 kts 269°
2026-05-06 11:12 56.87523 56.93427 37844 ft 426 kts 269°
2026-05-06 11:12 56.87541 56.82560 37838 ft 427 kts 269°
2026-05-06 11:13 56.87552 56.71707 37839 ft 427 kts 269°
2026-05-06 11:13 56.87556 56.60855 37860 ft 427 kts 269°
2026-05-06 11:14 56.87550 56.49987 37846 ft 427 kts 269°
2026-05-06 11:14 56.87521 56.39198 37845 ft 427 kts 268°
2026-05-06 11:15 56.87561 56.28329 37843 ft 427 kts 270°
2026-05-06 11:15 56.87673 56.17471 37840 ft 427 kts 269°
2026-05-06 11:16 56.87760 56.06616 37847 ft 427 kts 269°
2026-05-06 11:16 56.87836 55.95834 37842 ft 427 kts 269°
2026-05-06 11:17 56.87262 55.85158 37874 ft 422 kts 248°
2026-05-06 11:17 56.84597 55.75588 37864 ft 424 kts 243°
2026-05-06 11:18 56.82110 55.65802 37843 ft 425 kts 247°
2026-05-06 11:18 56.79846 55.55828 37836 ft 426 kts 247°
2026-05-06 11:19 56.77546 55.45860 37840 ft 426 kts 247°
2026-05-06 11:19 56.75238 55.35912 37836 ft 426 kts 247°
2026-05-06 11:20 56.72927 55.25961 37836 ft 427 kts 247°
2026-05-06 11:20 56.70614 55.16080 37826 ft 427 kts 247°
2026-05-06 11:21 56.68264 55.06134 37846 ft 427 kts 247°
2026-05-06 11:21 56.65910 54.96205 37832 ft 427 kts 247°
2026-05-06 11:22 56.63559 54.86346 37833 ft 428 kts 247°
2026-05-06 11:22 56.61184 54.76441 37827 ft 428 kts 247°
2026-05-06 11:23 56.58801 54.66539 37837 ft 428 kts 246°
2026-05-06 11:23 56.56405 54.56630 37834 ft 428 kts 246°
2026-05-06 11:24 56.54006 54.46753 37825 ft 428 kts 246°
2026-05-06 11:24 56.51600 54.36888 37838 ft 428 kts 246°
2026-05-06 11:25 56.49202 54.27094 37837 ft 429 kts 246°
2026-05-06 11:25 56.46707 54.17301 37838 ft 429 kts 246°
2026-05-06 11:26 56.44250 54.07477 37833 ft 429 kts 246°
2026-05-06 11:26 56.41793 53.97641 37850 ft 429 kts 246°
2026-05-06 11:27 56.39339 53.87829 37842 ft 429 kts 246°
2026-05-06 11:27 56.36880 53.78005 37847 ft 429 kts 246°
2026-05-06 11:28 56.34417 53.68188 37853 ft 430 kts 246°
2026-05-06 11:28 56.31948 53.58384 37846 ft 430 kts 245°
2026-05-06 11:29 56.29431 53.48600 37855 ft 430 kts 245°
2026-05-06 11:29 56.26927 53.38902 37855 ft 430 kts 245°
2026-05-06 11:30 56.24392 53.29141 37846 ft 431 kts 245°
2026-05-06 11:30 56.21850 53.19389 37850 ft 431 kts 245°
2026-05-06 11:31 56.19302 53.09648 37853 ft 431 kts 245°
2026-05-06 11:31 56.16748 52.99918 37851 ft 431 kts 245°
2026-05-06 11:32 56.14176 52.90177 37865 ft 431 kts 245°
2026-05-06 11:32 56.11619 52.80535 37860 ft 431 kts 245°
2026-05-06 11:33 56.09036 52.70833 37849 ft 432 kts 245°
2026-05-06 11:33 56.06447 52.61129 37853 ft 432 kts 245°
2026-05-06 11:34 56.03843 52.51447 37850 ft 432 kts 244°
2026-05-06 11:34 56.01233 52.41770 37868 ft 432 kts 244°
2026-05-06 11:35 55.98641 52.32076 37858 ft 432 kts 244°
2026-05-06 11:35 55.96057 52.22456 37857 ft 432 kts 244°
2026-05-06 11:36 55.93441 52.12787 37855 ft 432 kts 244°
2026-05-06 11:36 55.90821 52.03139 37851 ft 433 kts 244°
2026-05-06 11:37 55.88197 51.93493 37857 ft 433 kts 244°
2026-05-06 11:37 55.85567 51.83844 37868 ft 433 kts 244°
2026-05-06 11:38 55.83382 51.75834 37870 ft 433 kts 244°
2026-05-06 11:38 55.80746 51.66199 37858 ft 433 kts 244°
2026-05-06 11:39 55.77663 51.55006 37862 ft 434 kts 244°
2026-05-06 11:39 55.75438 51.47011 37868 ft 434 kts 244°
2026-05-06 11:40 55.72773 51.37375 37861 ft 434 kts 246°
2026-05-06 11:40 55.70411 51.27515 37865 ft 434 kts 248°
2026-05-06 11:41 55.68122 51.17623 37860 ft 434 kts 247°
2026-05-06 11:41 55.65766 51.07755 37864 ft 435 kts 247°
2026-05-06 11:42 55.63435 50.97963 37867 ft 434 kts 247°
2026-05-06 11:42 55.61080 50.88106 37872 ft 435 kts 247°
2026-05-06 11:43 55.58717 50.78263 37860 ft 435 kts 247°
2026-05-06 11:43 55.56340 50.68416 37871 ft 435 kts 247°
2026-05-06 11:44 55.52773 50.53681 37870 ft 435 kts 247°
2026-05-06 11:44 55.50388 50.43853 37873 ft 435 kts 247°
2026-05-06 11:45 55.48017 50.34101 37865 ft 435 kts 247°
2026-05-06 11:45 55.45626 50.24284 37875 ft 435 kts 247°
2026-05-06 11:46 55.43208 50.14532 37865 ft 436 kts 247°
2026-05-06 11:46 55.40776 50.04748 37860 ft 436 kts 246°
2026-05-06 11:47 55.38502 49.94857 37860 ft 435 kts 259°
2026-05-06 11:47 55.38380 49.89577 37886 ft 432 kts 276°
2026-05-06 11:47 55.38924 49.84368 37894 ft 434 kts 281°
2026-05-06 11:48 55.39956 49.73855 37878 ft 436 kts 275°
2026-05-06 11:48 55.40486 49.63298 37869 ft 436 kts 274°
2026-05-06 11:49 55.40970 49.52654 37866 ft 436 kts 274°
2026-05-06 11:49 55.41460 49.41993 37851 ft 436 kts 274°
2026-05-06 11:50 55.41947 49.31342 37844 ft 437 kts 274°
2026-05-06 11:50 55.42432 49.20685 37860 ft 436 kts 274°
2026-05-06 11:51 55.42907 49.10106 37844 ft 436 kts 274°
2026-05-06 11:51 55.43385 48.99439 37854 ft 436 kts 274°
2026-05-06 11:52 55.43843 48.88777 37855 ft 436 kts 274°
2026-05-06 11:52 55.44294 48.78127 37842 ft 436 kts 273°
2026-05-06 11:53 55.44727 48.67470 37845 ft 436 kts 273°
2026-05-06 11:53 55.45155 48.56799 37861 ft 436 kts 273°
2026-05-06 11:54 55.46251 48.46389 37863 ft 437 kts 287°
2026-05-06 11:54 55.48241 48.36239 37853 ft 437 kts 287°
2026-05-06 11:55 55.50082 48.26014 37849 ft 437 kts 286°
2026-05-06 11:55 55.51838 48.15814 37850 ft 437 kts 285°
2026-05-06 11:56 55.53600 48.05555 37857 ft 436 kts 285°
2026-05-06 11:56 55.55362 47.95287 37857 ft 436 kts 285°
2026-05-06 11:57 55.57100 47.85010 37860 ft 436 kts 285°
2026-05-06 11:57 55.58827 47.74723 37846 ft 436 kts 285°
2026-05-06 11:58 55.60534 47.64509 37859 ft 436 kts 285°
2026-05-06 11:58 55.62244 47.54223 37864 ft 436 kts 285°
2026-05-06 11:59 55.63943 47.43927 37870 ft 435 kts 285°
2026-05-06 11:59 55.65633 47.33635 37855 ft 435 kts 285°
2026-05-06 12:00 55.67316 47.23323 37867 ft 435 kts 285°
2026-05-06 12:00 55.68981 47.13020 37858 ft 434 kts 284°
2026-05-06 12:01 55.70598 47.02773 37864 ft 434 kts 284°
2026-05-06 12:01 55.72254 46.92480 37845 ft 434 kts 284°
2026-05-06 12:02 55.73912 46.82193 37836 ft 433 kts 284°
2026-05-06 12:02 55.75553 46.71904 37857 ft 433 kts 284°
2026-05-06 12:03 55.77178 46.61621 37866 ft 432 kts 284°
2026-05-06 12:03 55.78794 46.51344 37847 ft 432 kts 284°
2026-05-06 12:04 55.79911 46.40900 37867 ft 429 kts 272°
2026-05-06 12:04 55.80057 46.30294 37837 ft 429 kts 271°
2026-05-06 12:05 55.80324 46.19677 37843 ft 430 kts 272°
2026-05-06 12:05 55.80656 46.09066 37840 ft 429 kts 272°
2026-05-06 12:06 55.80989 45.98478 37839 ft 429 kts 272°
2026-05-06 12:06 55.81317 45.87958 37836 ft 429 kts 272°
2026-05-06 12:07 55.81646 45.77378 37831 ft 428 kts 272°
2026-05-06 12:07 55.81971 45.66803 37837 ft 428 kts 272°
2026-05-06 12:08 55.82254 45.56229 37825 ft 428 kts 272°
2026-05-06 12:08 55.82535 45.45658 37829 ft 427 kts 272°
2026-05-06 12:09 55.82804 45.35106 37829 ft 427 kts 272°
2026-05-06 12:09 55.83061 45.24630 37829 ft 427 kts 272°
2026-05-06 12:10 55.83151 45.21061 37818 ft 427 kts 272°
2026-05-06 12:10 55.83547 45.03976 37815 ft 426 kts 272°
2026-05-06 12:11 55.83758 44.93425 37819 ft 426 kts 271°
2026-05-06 12:11 55.83947 44.82892 37824 ft 426 kts 271°
2026-05-06 12:12 55.84151 44.72369 37836 ft 426 kts 271°
2026-05-06 12:12 55.84366 44.61826 37811 ft 426 kts 271°
2026-05-06 12:13 55.84567 44.51378 37825 ft 425 kts 271°
2026-05-06 12:13 55.84764 44.40830 37823 ft 426 kts 271°
2026-05-06 12:14 55.84962 44.30302 37826 ft 425 kts 271°
2026-05-06 12:14 55.85156 44.19766 37829 ft 425 kts 271°
2026-05-06 12:15 55.85345 44.09302 37817 ft 425 kts 271°
2026-05-06 12:15 55.85525 43.98768 37822 ft 425 kts 271°
2026-05-06 12:16 55.85672 43.88245 37811 ft 425 kts 271°
2026-05-06 12:16 55.85815 43.77740 37823 ft 424 kts 271°
2026-05-06 12:17 55.85950 43.67303 37829 ft 424 kts 271°
2026-05-06 12:17 55.86072 43.56801 37814 ft 424 kts 270°
2026-05-06 12:18 55.86159 43.46293 37808 ft 424 kts 270°
2026-05-06 12:18 55.86214 43.35791 37818 ft 424 kts 270°
2026-05-06 12:19 55.86325 43.25291 37807 ft 424 kts 270°
2026-05-06 12:19 55.86419 43.14799 37814 ft 424 kts 270°
2026-05-06 12:20 55.86510 43.04360 37833 ft 424 kts 270°
2026-05-06 12:20 55.86593 42.93870 37841 ft 423 kts 270°
2026-05-06 12:21 55.86652 42.83405 37821 ft 423 kts 270°
2026-05-06 12:21 55.86726 42.72940 37825 ft 422 kts 270°
2026-05-06 12:22 55.86767 42.62474 37830 ft 422 kts 270°
2026-05-06 12:22 55.86817 42.52080 37834 ft 422 kts 270°
2026-05-06 12:23 55.86849 42.41617 37825 ft 422 kts 270°
2026-05-06 12:23 55.86878 42.31179 37813 ft 422 kts 270°
2026-05-06 12:24 55.86904 42.20740 37809 ft 422 kts 270°
2026-05-06 12:24 55.86925 42.10306 37827 ft 421 kts 270°
2026-05-06 12:25 55.86926 42.10007 37825 ft 421 kts 270°
2026-05-06 12:25 55.86937 42.05015 38399 ft 410 kts 270°
2026-05-06 12:25 55.86949 41.99930 38101 ft 424 kts 270°
2026-05-06 12:26 55.86949 41.94627 37843 ft 431 kts 269°
2026-05-06 12:26 55.86939 41.89278 37628 ft 429 kts 270°
2026-05-06 12:26 55.86910 41.78635 37774 ft 433 kts 269°
2026-05-06 12:27 55.86565 41.67867 37650 ft 434 kts 266°
2026-05-06 12:27 55.86191 41.57293 37633 ft 426 kts 266°
2026-05-06 12:28 55.85863 41.46788 37630 ft 422 kts 267°
2026-05-06 12:28 55.85534 41.36359 37629 ft 421 kts 267°
2026-05-06 12:29 55.85205 41.26009 37624 ft 420 kts 267°
2026-05-06 12:29 55.84872 41.15623 37641 ft 420 kts 266°
2026-05-06 12:30 55.84535 41.05235 37629 ft 421 kts 266°
2026-05-06 12:30 55.84194 40.94771 37632 ft 429 kts 266°
2026-05-06 12:31 55.83821 40.84122 37638 ft 432 kts 266°
2026-05-06 12:31 55.83437 40.73408 37638 ft 432 kts 266°
2026-05-06 12:32 55.83036 40.62733 37358 ft 436 kts 266°
2026-05-06 12:32 55.82799 40.57366 36827 ft 435 kts 266°
2026-05-06 12:32 55.82550 40.51982 36197 ft 436 kts 266°
2026-05-06 12:33 55.82320 40.46595 35574 ft 437 kts 266°
2026-05-06 12:33 55.82102 40.41206 34889 ft 438 kts 266°
2026-05-06 12:33 55.81879 40.35801 34233 ft 437 kts 266°
2026-05-06 12:33 55.81649 40.30462 33483 ft 438 kts 266°
2026-05-06 12:34 55.81424 40.25026 32563 ft 440 kts 267°
2026-05-06 12:34 55.81190 40.19598 31613 ft 442 kts 266°
2026-05-06 12:34 55.80947 40.14157 30791 ft 441 kts 266°
2026-05-06 12:34 55.80706 40.08728 29916 ft 441 kts 266°
2026-05-06 12:35 55.80468 40.03263 28863 ft 442 kts 266°
2026-05-06 12:35 55.80235 39.97886 27950 ft 440 kts 266°
2026-05-06 12:35 55.80005 39.92481 27270 ft 436 kts 266°
2026-05-06 12:35 55.79780 39.87150 26775 ft 431 kts 266°
2026-05-06 12:36 55.79553 39.81770 26146 ft 436 kts 266°
2026-05-06 12:36 55.79246 39.76465 24949 ft 439 kts 264°
2026-05-06 12:36 55.78870 39.71115 24196 ft 432 kts 263°
2026-05-06 12:36 55.78496 39.65905 24271 ft 422 kts 263°
2026-05-06 12:37 55.78120 39.60656 24242 ft 430 kts 263°
2026-05-06 12:37 55.77764 39.55362 24030 ft 431 kts 264°
2026-05-06 12:37 55.77413 39.50090 23876 ft 427 kts 263°
2026-05-06 12:37 55.77046 39.44832 23844 ft 433 kts 264°
2026-05-06 12:38 55.76699 39.39572 23560 ft 432 kts 264°
2026-05-06 12:38 55.76330 39.34286 23073 ft 428 kts 263°
2026-05-06 12:38 55.75955 39.29062 22920 ft 427 kts 263°
2026-05-06 12:38 55.75579 39.23841 22838 ft 426 kts 263°
2026-05-06 12:39 55.75202 39.18614 22844 ft 426 kts 263°
2026-05-06 12:39 55.74824 39.13360 22778 ft 429 kts 263°
2026-05-06 12:39 55.74445 39.08116 22520 ft 427 kts 263°
2026-05-06 12:39 55.74067 39.02882 22259 ft 425 kts 263°
2026-05-06 12:40 55.73700 38.97770 22060 ft 420 kts 263°
2026-05-06 12:40 55.73368 38.92589 21871 ft 425 kts 267°
2026-05-06 12:40 55.73463 38.87381 21518 ft 421 kts 275°
2026-05-06 12:40 55.73798 38.82223 21279 ft 419 kts 277°
2026-05-06 12:41 55.74149 38.77088 21025 ft 418 kts 276°
2026-05-06 12:41 55.74450 38.71966 20772 ft 416 kts 275°
2026-05-06 12:41 55.74625 38.68583 20603 ft 415 kts 275°
2026-05-06 12:41 55.74861 38.63486 20346 ft 413 kts 274°
2026-05-06 12:42 55.75111 38.58411 20018 ft 409 kts 275°
2026-05-06 12:42 55.76289 38.52104 19866 ft 412 kts 301°
2026-05-06 12:42 55.78089 38.48135 19881 ft 414 kts 309°
2026-05-06 12:42 55.79381 38.45544 19893 ft 414 kts 309°
2026-05-06 12:43 55.81209 38.41603 19892 ft 413 kts 306°
2026-05-06 12:43 55.82919 38.37571 19790 ft 418 kts 304°
2026-05-06 12:43 55.84669 38.33459 19538 ft 414 kts 305°
2026-05-06 12:43 55.86438 38.29417 19310 ft 412 kts 306°
2026-05-06 12:44 55.88183 38.25386 19079 ft 410 kts 305°
2026-05-06 12:44 55.89922 38.21361 18845 ft 409 kts 306°
2026-05-06 12:44 55.91656 38.17346 18559 ft 407 kts 305°
2026-05-06 12:44 55.93375 38.13354 18059 ft 404 kts 305°
2026-05-06 12:45 55.95071 38.09424 17442 ft 394 kts 305°
2026-05-06 12:45 55.96738 38.05551 17025 ft 387 kts 305°
2026-05-06 12:45 55.99971 37.98069 16038 ft 383 kts 305°
2026-05-06 12:46 56.01212 37.94041 15235 ft 377 kts 286°
2026-05-06 12:46 56.01667 37.89478 14841 ft 366 kts 276°
2026-05-06 12:46 56.01949 37.84932 14894 ft 369 kts 276°
2026-05-06 12:46 56.02394 37.80359 14850 ft 379 kts 286°
2026-05-06 12:47 56.03678 37.76271 14590 ft 382 kts 307°
2026-05-06 12:47 56.05767 37.73415 14224 ft 388 kts 329°
2026-05-06 12:47 56.08283 37.71602 14018 ft 390 kts 336°
2026-05-06 12:47 56.10823 37.69918 13806 ft 388 kts 335°
2026-05-06 12:48 56.13343 37.68205 13489 ft 390 kts 340°
2026-05-06 12:48 56.16070 37.67837 12961 ft 398 kts
2026-05-06 12:48 56.18815 37.68627 12693 ft 399 kts
2026-05-06 12:48 56.21546 37.69452 12467 ft 397 kts
2026-05-06 12:49 56.24280 37.70081 12210 ft 394 kts
2026-05-06 12:49 56.27002 37.70563 11953 ft 392 kts 360°
2026-05-06 12:49 56.29637 37.70294 11675 ft 365 kts 340°
2026-05-06 12:49 56.31768 37.68312 11380 ft 332 kts 315°
2026-05-06 12:50 56.33235 37.65379 11111 ft 306 kts 304°
2026-05-06 12:50 56.34478 37.62443 10840 ft 285 kts 303°
2026-05-06 12:50 56.35660 37.59708 10545 ft 268 kts 304°
2026-05-06 12:50 56.36812 37.57120 10252 ft 262 kts 304°
2026-05-06 12:51 56.37891 37.54508 9993 ft 256 kts 300°
2026-05-06 12:51 56.38888 37.51828 9761 ft 257 kts 299°
2026-05-06 12:51 56.39880 37.49130 9504 ft 258 kts 299°
2026-05-06 12:51 56.40869 37.46427 9240 ft 258 kts 299°
2026-05-06 12:52 56.41844 37.43756 8993 ft 258 kts 299°
2026-05-06 12:52 56.42826 37.41041 8725 ft 256 kts 296°
2026-05-06 12:52 56.43297 37.38012 8482 ft 250 kts 274°
2026-05-06 12:52 56.43394 37.34867 8220 ft 251 kts 271°
2026-05-06 12:53 56.43451 37.31711 7966 ft 251 kts 271°
2026-05-06 12:53 56.43431 37.28570 7708 ft 251 kts 258°
2026-05-06 12:53 56.42666 37.25735 7469 ft 255 kts 236°
2026-05-06 12:53 56.41341 37.23568 7222 ft 262 kts 216°
2026-05-06 12:54 56.39618 37.22415 6977 ft 270 kts 194°
2026-05-06 12:54 56.37718 37.22608 6729 ft 282 kts 169°
2026-05-06 12:54 56.35967 37.24288 6512 ft 290 kts 148°
2026-05-06 12:54 56.34410 37.26542 6275 ft 291 kts 144°
2026-05-06 12:55 56.32853 37.28888 6011 ft 291 kts 144°
2026-05-06 12:55 56.31300 37.31212 5771 ft 290 kts 144°
2026-05-06 12:55 56.29748 37.33519 5533 ft 288 kts 144°
2026-05-06 12:55 56.28201 37.35795 5276 ft 286 kts 143°
2026-05-06 12:56 56.26675 37.38047 5036 ft 284 kts 143°
2026-05-06 12:56 56.25142 37.40289 4794 ft 282 kts 144°
2026-05-06 12:56 56.23613 37.42506 4548 ft 282 kts 144°
2026-05-06 12:56 56.22088 37.44716 4292 ft 281 kts 143°
2026-05-06 12:57 56.20577 37.46924 4049 ft 278 kts 143°
2026-05-06 12:57 56.19075 37.49103 3869 ft 278 kts 144°
2026-05-06 12:57 56.17550 37.51276 3633 ft 281 kts 144°
2026-05-06 12:57 56.16050 37.53437 3427 ft 279 kts 143°
2026-05-06 12:58 56.14552 37.55612 3153 ft 276 kts 143°
2026-05-06 12:58 56.13070 37.57800 2935 ft 276 kts 142°
2026-05-06 12:58 56.11590 37.59935 2756 ft 266 kts 144°
2026-05-06 12:58 56.10172 37.61950 2669 ft 255 kts 145°
2026-05-06 12:59 56.08817 37.63916 2567 ft 245 kts 143°
2026-05-06 12:59 56.07542 37.65839 2478 ft 234 kts 142°
2026-05-06 12:59 56.06309 37.67636 2530 ft 224 kts 145°
2026-05-06 12:59 56.05074 37.69390 2498 ft 226 kts 145°
2026-05-06 13:00 56.03819 37.70994 2476 ft 217 kts 164°
2026-05-06 13:00 56.02476 37.71037 2491 ft 180 kts 213°
2026-05-06 13:00 56.01706 37.69482 2551 ft 172 kts 249°
2026-05-06 13:00 56.01194 37.67298 2707 ft 209 kts 249°
2026-05-06 13:01 56.00598 37.64645 2838 ft 250 kts 252°
2026-05-06 13:01 56.00148 37.61543 2738 ft 257 kts 259°
2026-05-06 13:01 55.99706 37.58535 2303 ft 247 kts 254°
2026-05-06 13:01 55.99282 37.55753 2007 ft 217 kts 257°
2026-05-06 13:02 55.98919 37.53317 1770 ft 193 kts 256°
2026-05-06 13:02 55.98582 37.51067 1484 ft 183 kts 257°
2026-05-06 13:02 55.98255 37.48893 1242 ft 181 kts 256°
2026-05-06 13:02 55.97929 37.46765 989 ft 170 kts 258°
2026-05-06 13:03 55.97643 37.44829 718 ft 156 kts 256°
2026-05-06 13:03 55.97384 37.43105 645 ft 128 kts 256°
2026-05-06 13:03 55.97181 37.41731 649 ft 103 kts 256°
2026-05-06 13:03 55.97023 37.40702 646 ft 53 kts 251°
2026-05-06 13:04 55.96851 37.40279 645 ft 27 kts 223°
2026-05-06 13:04 55.96772 37.40178 646 ft 11 kts 179°
2026-05-06 13:04 55.96744 37.40256 645 ft 11 kts 83°
2026-05-06 13:04 55.96772 37.40435 647 ft 21 kts 74°
2026-05-06 13:05 55.96813 37.40715 646 ft 19 kts 75°
2026-05-06 13:05 55.96847 37.40943 645 ft 16 kts 76°
2026-05-06 13:05 55.96815 37.41034 645 ft 7 kts 161°
2026-05-06 13:05 55.96788 37.41088 645 ft 6 kts 103°
2026-05-06 13:06 55.96800 37.41191 645 ft 13 kts 75°
2026-05-06 13:06 55.96833 37.41412 645 ft 23 kts 75°
2026-05-06 13:06 55.96866 37.41630 645 ft 17 kts 75°
2026-05-06 13:06 55.96895 37.41820 645 ft 15 kts 75°
2026-05-06 13:07 55.96896 37.41939 646 ft 5 kts 126°
2026-05-06 13:07 55.96880 37.41958 645 ft 2 kts 153°
2026-05-06 13:07 55.96858 37.41984 645 ft 3 kts 123°
2026-05-06 13:07 55.96861 37.42052 646 ft 9 kts 75°
2026-05-06 13:08 55.96870 37.42114 646 ft 0 kts 75°